Theta_e
278 278 277 276 276 275 275 276 277 277 277 278 278 278 278 278 278 278 278 277 277 277
277 276 275 275 275 275 275 275 276 276 276 276 276 277 277 277 277 277 277 277 277 276
276 275 275 274 274 274 274 274 274 274 275 275 275 275 275 275 276 276 276 276 276 276
274 274 274 273 273 273 273 273 273 274 274 274 274 274 274 273 274 273 273 274 274 274
273 273 272 272 272 273 272 273 273 273 272 272 272 272 271 271 271 271 271 271 272 272
271 271 271 271 271 272 272 272 272 271 270 270 270 271 270 270 270 271 271 271 271 271
270 270 270 271 271 271 271 270 270 270 269 269 269 269 270 270 270 270 271 272 272 272
270 270 270 270 270 270 269 269 269 268 268 268 269 269 269 270 271 272 272 273 274 274
269 268 268 268 268 267 267 267 267 267 267 267 267 270 272 273 271 273 273 273 274 275
267 267 267 266 266 266 265 266 266 266 266 265 266 270 272 273 272 272 272 273 274 275
265 265 265 264 264 264 265 265 265 265 265 265 266 270 272 273 273 272 272 273 274 275
264 263 263 261 263 263 264 263 263 265 264 264 264 270 272 273 271 271 272 273 274 275
263 261 261 262 262 263 262 263 264 264 264 265 265 269 271 273 271 269 271 272 274 276
262 260 261 262 261 261 261 262 261 263 265 266 267 267 272 273 271 271 271 272 273 274
Wind_Speed
6 4 5 7 7 7 7 8 11 11 12 15 15 14 15 13 13 16 14 20 17 14
5 5 6 9 8 6 9 9 11 12 14 16 16 16 16 13 16 16 16 17 17 16
3 5 6 7 8 9 11 12 13 14 15 15 16 16 16 15 16 18 14 13 18 17
3 5 6 7 8 10 12 13 15 15 16 17 17 17 16 18 19 19 19 18 18 21
3 5 6 8 9 10 12 13 15 15 16 17 17 17 18 19 18 19 19 19 19 20
4 5 7 8 9 11 13 14 14 15 16 17 18 18 18 18 19 19 19 19 19 20
4 5 7 8 9 11 12 14 14 15 16 18 18 19 19 20 20 20 19 21 20 19
4 5 6 8 9 11 12 12 14 16 16 17 17 13 19 20 20 21 21 20 20 21
3 4 6 8 10 11 12 12 14 15 16 18 13 25 31 28 20 21 21 20 20 20
3 5 7 8 10 11 12 13 14 15 16 18 18 29 32 32 19 20 20 21 19 18
2 5 7 8 10 11 12 13 14 15 16 17 16 30 32 33 20 18 20 21 19 21
2 5 7 7 9 11 12 13 13 14 16 17 17 29 32 29 17 18 19 20 19 19
3 4 6 7 9 10 11 13 12 15 15 19 17 26 32 28 14 17 15 18 19 26
2 4 5 7 8 9 11 13 13 15 15 15 16 19 29 32 17 15 15 15 15 14
Wind_Direction
232 245 260 272 275 283 289 285 288 286 281 277 275 272 273 272 268 267 263 262 255 257
236 259 282 284 284 295 290 288 289 290 283 279 277 275 274 269 272 270 267 263 260 257
265 291 281 284 294 296 292 293 290 286 284 287 285 282 278 275 273 271 268 268 264 262
272 282 289 296 296 290 291 293 292 294 293 293 292 289 285 279 277 272 273 270 268 267
287 293 293 289 292 293 293 295 297 301 299 296 295 292 287 284 281 278 276 275 273 268
307 303 285 290 295 298 300 303 300 301 299 299 297 292 289 287 286 281 276 275 271 271
261 275 290 294 299 301 302 302 301 300 298 296 295 293 293 291 286 280 273 269 265 264
251 282 296 300 306 305 301 299 301 301 299 295 296 297 298 290 286 282 278 273 265 259
268 299 305 310 308 307 303 305 305 301 302 302 298 297 299 299 290 286 282 280 272 264
297 300 315 318 305 305 308 308 304 305 304 301 298 302 306 306 296 287 281 278 277 271
303 318 319 309 308 312 311 309 310 303 300 297 299 305 309 303 299 296 288 280 275 281
326 316 311 305 317 315 312 310 302 298 300 295 294 303 313 313 304 290 295 288 281 280
324 288 300 316 315 313 309 303 303 301 296 296 296 306 314 314 311 298 296 292 285 282
318 299 288 312 317 313 306 305 301 300 302 303 305 310 311 323 313 301 296 296 297 290